Tracking 19245 objects as of 14-Aug-2018
HD Live streaming from Space Station
objects crossing your sky now

FENGYUN 1C DEB

Track FENGYUN 1C DEB now!
10-day predictions


NORAD ID: 37415
Int'l Code: 1999-025EGH
Perigee: 863.3 km
Apogee: 1,293.1 km
Inclination: 98.9 °
Period: 106.6 minutes
Semi major axis: 7449 km
RCS: 0.0105 m2 (small)
Launch date: May 10, 1999
Source: People's Republic of China (PRC)
Launch site: Taiyaun Space Center, China (TSC)

Note: This is SATELLITE DEBRIS
aabbcc
Your satellite tracking list
Your tracking list is empty




NASA's NSSDC Master Catalog

Two Line Element Set (TLE):
1 37415U 99025EGH 18224.39554984 +.00000022 +00000-0 +71527-4 0  9999
2 37415 098.9081 201.6304 0288487 175.5728 184.8065 13.50315964547606
Source of the keplerian elements: AFSPC